HB9SZU-6 Weather Reports


time (UTC)temp
C
wind
direction
speed
KPH
gust
KPH
rain 1hr
cm
rain 24hr
cm
rain mn
cm
humidity
%
barometer
mb
20260507214253 15 0.0 0.0 0.00 0.00 0.00 62 1020.2
20260507212752 15 0.0 0.0 0.00 0.00 0.00 61 1020.1
20260507211252 15 0.0 0.0 0.00 0.00 0.00 61 1020.2
20260507205753 16 0.0 0.0 0.00 0.00 0.00 60 1020.0
20260507204253 16 0.0 0.0 0.00 0.00 0.00 60 1020.0
20260507202752 16 0.0 0.0 0.00 0.00 0.00 59 1019.6
20260507201253 16 0.0 0.0 0.00 0.00 0.00 59 1019.5
20260507195753 16 0.0 0.0 0.00 0.00 0.00 58 1019.0
20260507194252 17 0.0 0.0 0.00 0.00 0.00 58 1018.9
20260507192753 17 0.0 0.0 0.00 0.00 0.00 57 1018.6
20260507191253 17 0.0 0.0 0.00 0.00 0.00 56 1018.4
20260507185753 18 0.0 0.0 0.00 0.00 0.00 55 1018.1
20260507184252 18 0.0 0.0 0.00 0.00 0.00 54 1018.0
20260507182752 19 0.0 0.0 0.00 0.00 0.00 53 1017.6
20260507181252 19 0.0 0.0 0.00 0.00 0.00 52 1017.4
20260507175752 20 0.0 0.0 0.00 0.00 0.00 51 1017.0
20260507174253 20 0.0 0.0 0.00 0.00 0.00 51 1016.9
20260507172752 20 0.0 0.0 0.00 0.00 0.00 50 1016.6
20260507171253 21 0.0 0.0 0.00 0.00 0.00 50 1016.7
20260507165753 21 0.0 0.0 0.00 0.00 0.00 50 1016.5
20260507164253 22 0.0 0.0 0.00 0.00 0.00 51 1016.5
20260507162752 22 0.0 0.0 0.00 0.00 0.00 51 1016.5
20260507161253 22 0.0 0.0 0.00 0.00 0.00 51 1016.4
20260507155753 22 0.0 0.0 0.00 0.00 0.00 51 1016.6
20260507154253 22 0.0 0.0 0.00 0.00 0.00 51 1016.7
20260507152752 23 0.0 0.0 0.00 0.00 0.00 51 1016.7
20260507151252 23 0.0 0.0 0.00 0.00 0.00 52 1016.7
20260507145752 23 0.0 0.0 0.00 0.00 0.00 52 1016.9
20260507144253 23 0.0 0.0 0.00 0.00 0.00 53 1016.9
20260507142752 23 0.0 0.0 0.00 0.00 0.00 53 1017.1
20260507141253 23 0.0 0.0 0.00 0.00 0.00 53 1017.3
20260507135753 23 0.0 0.0 0.00 0.00 0.00 53 1017.2
20260507134253 23 0.0 0.0 0.00 0.00 0.00 53 1017.5
20260507132753 22 0.0 0.0 0.00 0.00 0.00 52 1017.6
20260507131253 22 0.0 0.0 0.00 0.00 0.00 52 1017.8
20260507125753 21 0.0 0.0 0.00 0.00 0.00 53 1017.5
20260507124253 21 0.0 0.0 0.00 0.00 0.00 53 1017.6
20260507122752 21 0.0 0.0 0.00 0.00 0.00 53 1017.6
20260507121253 21 0.0 0.0 0.00 0.00 0.00 56 1017.6
20260507115753 20 0.0 0.0 0.00 0.00 0.00 58 1017.8
20260507114253 20 0.0 0.0 0.00 0.00 0.00 59 1017.9
20260507112752 20 0.0 0.0 0.00 0.00 0.00 61 1018.0
20260507111253 19 0.0 0.0 0.00 0.00 0.00 64 1018.1
20260507105752 18 0.0 0.0 0.00 0.00 0.00 68 1018.3
20260507104253 18 0.0 0.0 0.00 0.00 0.00 70 1018.4
20260507102753 17 0.0 0.0 0.00 0.00 0.00 72 1018.7
20260507101253 17 0.0 0.0 0.00 0.00 0.00 76 1018.6
20260507095753 16 0.0 0.0 0.00 0.00 0.00 79 1018.8
20260507094252 15 0.0 0.0 0.00 0.00 0.00 79 1018.7
20260507092753 14 0.0 0.0 0.00 0.00 0.00 81 1018.7
20260507091253 14 0.0 0.0 0.00 0.00 0.00 81 1018.9
20260507085752 13 0.0 0.0 0.00 0.00 0.00 82 1018.9
20260507084253 12 0.0 0.0 0.00 0.00 0.00 82 1018.9
20260507082753 12 0.0 0.0 0.00 0.00 0.00 82 1019.0
20260507081253 12 0.0 0.0 0.00 0.00 0.00 83 1019.1
20260507075753 11 0.0 0.0 0.00 0.00 0.00 83 1019.4
20260507074252 10 0.0 0.0 0.00 0.00 0.00 83 1019.4
20260507072752 10 0.0 0.0 0.00 0.00 0.00 83 1019.4
20260507071252 10 0.0 0.0 0.00 0.00 0.00 83 1019.4
20260507065752 10 0.0 0.0 0.00 0.00 0.00 83 1019.4
20260507064252 10 0.0 0.0 0.00 0.00 0.00 83 1019.4
20260507062752 10 0.0 0.0 0.00 0.00 0.00 83 1019.5
20260507061252 10 0.0 0.0 0.00 0.00 0.00 83 1019.4
20260507055752 10 0.0 0.0 0.00 0.00 0.00 83 1019.4
20260507054252 10 0.0 0.0 0.00 0.00 0.00 83 1018.5
20260507052753 10 0.0 0.0 0.00 0.00 0.00 83 1018.5
20260507051253 10 0.0 0.0 0.00 0.00 0.00 83 1018.5
20260507045752 10 0.0 0.0 0.00 0.00 0.00 83 1018.5
20260507044252 10 0.0 0.0 0.00 0.00 0.00 82 1018.4
20260507042753 10 0.0 0.0 0.00 0.00 0.00 82 1018.2
20260507041252 10 0.0 0.0 0.00 0.00 0.00 82 1018.2
20260507035752 10 0.0 0.0 0.00 0.00 0.00 82 1018.1
20260507034252 10 0.0 0.0 0.00 0.00 0.00 82 1018.3
20260507031252 10 0.0 0.0 0.00 0.00 0.00 82 1018.1
20260507025752 11 0.0 0.0 0.00 0.00 0.00 82 1018.2
20260507024252 11 0.0 0.0 0.00 0.00 0.00 82 1018.3
20260507022753 11 0.0 0.0 0.00 0.00 0.00 82 1018.3
20260507021253 11 0.0 0.0 0.00 0.00 0.00 82 1018.2
20260507015752 11 0.0 0.0 0.00 0.00 0.00 82 1018.0
20260507014252 11 0.0 0.0 0.00 0.00 0.00 82 1017.5
20260507012752 11 0.0 0.0 0.00 0.00 0.00 82 1017.6
20260507011252 11 0.0 0.0 0.00 0.00 0.00 82 1017.7
20260507005753 11 0.0 0.0 0.00 0.00 0.00 82 1017.6
20260507004252 11 0.0 0.0 0.00 0.00 0.00 82 1017.5
20260507002753 11 0.0 0.0 0.00 0.00 0.00 82 1017.5
20260507001252 11 0.0 0.0 0.00 0.00 0.00 82 1017.4
20260506235752 11 0.0 0.0 0.00 0.00 0.00 82 1017.4
20260506234252 11 0.0 0.0 0.00 0.00 0.00 82 1017.5
20260506232752 11 0.0 0.0 0.00 0.00 0.00 82 1017.5
20260506231252 12 0.0 0.0 0.00 0.00 0.00 82 1017.5
20260506225752 12 0.0 0.0 0.00 0.00 0.00 81 1017.5
20260506224252 12 0.0 0.0 0.00 0.00 0.00 81 1017.6
20260506222752 12 0.0 0.0 0.00 0.00 0.00 81 1017.6
20260506221252 12 0.0 0.0 0.03 0.00 0.00 81 1017.8
20260506215753 12 0.0 0.0 0.05 0.00 0.48 81 1017.2